Regional Weather Roundup
Issued by NWS Nashville, TN

Home | Current Version | Previous Version | Text Only | Print | Product List | Glossary On
Versions: 1 2 3 4 5 6 7 8 9 10 11 12 13 14 15 16 17 18 19 20 21 22 23 24 25 26 27 28 29 30 31 32 33 34 35 36 37 38 39 40 41 42 43 44 45 46 47 48 49 50
000
ASUS44 KOHX 132010
RWROHX
MIDDLE TENNESSEE HOURLY WEATHER ROUNDUP
NATIONAL WEATHER SERVICE NASHVILLE TN
200 PM CST SAT FEB 13 2016

NOTE: "FAIR" INDICATES FEW OR NO CLOUDS BELOW 12,000 FEET WITH
NO SIGNIFICANT WEATHER AND/OR OBSTRUCTIONS TO VISIBILITY.

* THESE REPORTS ARE NOT UNDER NWS QUALITY CONTROL AND MAY NOT
  REPORT WEATHER SUCH AS PRECIPITATION AND FOG.


TNZ005>011-023>034-057-059-062>066-078-080-132100
...NORTHERN MIDDLE TENNESSEE...

CITY           SKY/WX    TMP DP  RH WIND       PRES   REMARKS
CLARKSVILLE    SUNNY     28   3  34 N10       30.54F WCI  19
CROSSVILLE     SUNNY     27   3  35 NW12      30.37F WCI  17
DICKSON        SUNNY     27   1  33 N12       30.49F WCI  16
NASHVILLE      MOSUNNY   32   2  27 N13       30.51F WCI  22
PORTLAND       SUNNY    N/A N/A N/A CALM      30.49F
ROCKWOOD       SUNNY     27   5  38 N8        30.36F WCI  19
SMYRNA         SUNNY     32   4  30 N7        30.52F WCI  26
SPARTA         SUNNY     28   7  40 NW8       30.43F WCI  20
$$
TNZ056-058-060-061-075>077-079-093>097-132100
...SOUTHERN MIDDLE TENNESSEE...

CITY           SKY/WX    TMP DP  RH WIND       PRES   REMARKS
COLUMBIA       SUNNY     32   5  32 VRB7      30.46F WCI  26
FAYETTEVILLE   SUNNY     34   3  27 N7G13     30.43F WCI  28
LEWISBURG      SUNNY     32   3  29 N10       30.47F WCI  24
MCMINNVILLE    SUNNY     30   3  31 N10       30.44F WCI  21
SHELBYVILLE    SUNNY     32   7  34 NW10      30.48F WCI  24
TULLAHOMA      SUNNY     30   1  29 N10       30.44F WCI  21
WINCHESTER     SUNNY     30   3  31 N9        30.43F WCI  22
$$


...KEY TO REMARKS...
VSB - VISIBILITY IN MILES
WCI - WIND CHILL INDEX
HX  - HEAT INDEX




USA.gov is the U.S. government's official web portal to all federal, state and local government web resources and services.